Flag for Belgium Weather past 2 weeks in Leuven, Belgium

Now
48 °F

Passing clouds.


Feels Like: 45 °F
Forecast: 41 / 62 °F
Wind: 7 mph from Northeast

Location: Brussels National Airport

Current Time: Apr 19, 2015 at 12:00:42 PM

Latest Report: Apr 19, 2015 at 11:20 AM


Visibility: N/A

Pressure: 30.18 "Hg

Humidity: 66%

Dew point: 37 °F

Location of LeuvenLocation

Historic Weather in Leuven — Graph

°F

Leuven temperature yesterday

Maximum temperature yesterday: 57 °F (at 4:20 PM)
Minimum temperature yesterday: 36 °F (at 4:20 AM)
Average temperature yesterday: 46 °F

Past Weeks' High & Low Weather Summary

 TemperatureHumidityPressure
High75 °F (Apr 15, 3:50 PM)100% (Apr 8, 6:50 AM)30.66 "Hg (Apr 8, 6:50 AM)
Low32 °F (Apr 5, 6:20 AM)27% (Apr 10, 4:50 PM)29.92 "Hg (Apr 16, 5:50 PM)
Average49 °F69%30.27 "Hg
* Reported Apr 4 10:20 AM — Apr 19 10:50 AM, Leuven, Weather by CustomWeather, © 2015

Note: Actual official high and low records may vary slightly from our data, if they occured in-between our weather recording intervals... More about our weather records

Advertising

Leuven weather history for previous 24 hours

 ConditionsComfort  
Time TempWeatherWind HumidityBarometerVisibility
10:50 AM
Sun, Apr 19
46 °FPassing clouds.7 mph71%30.18 "HgN/A
10:20 AM45 °FPassing clouds.5 mph76%30.18 "HgN/A
9:50 AM43 °FPassing clouds.7 mph87%30.21 "HgN/A
9:20 AM41 °FPassing clouds.6 mph87%30.21 "HgN/A
8:50 AM39 °FSunny.6 mph93%30.21 "Hg10 mi
8:20 AM37 °FSunny.5 mph93%30.21 "Hg10 mi
7:50 AM36 °FClear.5 mph93%30.21 "Hg6 mi
7:20 AM36 °FClear.3 mph93%30.18 "Hg6 mi
6:50 AM34 °FPassing clouds.3 mph100%30.21 "HgN/A
6:20 AM34 °FClear.5 mph93%30.21 "Hg10 mi
5:50 AM36 °FClear.5 mph93%30.21 "Hg10 mi
5:20 AM36 °FClear.3 mph93%30.21 "Hg10 mi
4:50 AM37 °FClear.2 mph93%30.21 "Hg10 mi
4:20 AM37 °FClear.3 mph87%30.21 "Hg10 mi
3:50 AM37 °FClear.2 mph87%30.24 "Hg10 mi
3:20 AM37 °FClear.3 mph87%30.24 "Hg10 mi
2:50 AM39 °FClear.5 mph81%30.24 "Hg10 mi
2:20 AM39 °FClear.6 mph81%30.24 "Hg10 mi
1:50 AM39 °FClear.6 mph81%30.27 "Hg10 mi
1:20 AM41 °FClear.6 mph81%30.27 "Hg10 mi
12:50 AM41 °FClear.5 mph81%30.27 "Hg10 mi
12:20 AM43 °FClear.5 mph76%30.27 "Hg10 mi
11:50 PM
Sat, Apr 18
43 °FClear.7 mph76%30.27 "Hg10 mi
11:20 PM45 °FClear.9 mph76%30.27 "Hg10 mi
10:50 PM45 °FClear.9 mph76%30.27 "Hg10 mi
10:20 PM45 °FClear.6 mph66%30.27 "Hg10 mi
9:50 PM46 °FClear.5 mph62%30.27 "Hg10 mi
9:20 PM46 °FSunny.6 mph62%30.27 "Hg10 mi
8:50 PM50 °FSunny.6 mph50%30.27 "Hg10 mi
8:20 PM52 °FSunny.7 mph44%30.27 "Hg10 mi
7:50 PM54 °FSunny.9 mph44%30.27 "Hg10 mi
7:20 PM55 °FPassing clouds.8 mph41%30.27 "HgN/A
6:50 PM55 °FPassing clouds.9 mph41%30.27 "HgN/A
6:20 PM57 °FPassing clouds.12 mph39%30.27 "HgN/A
5:50 PM55 °FPassing clouds.12 mph38%30.27 "HgN/A
5:20 PM57 °FSunny.12 mph44%30.27 "Hg10 mi
4:50 PM57 °FPassing clouds.12 mph41%30.27 "HgN/A
4:20 PM57 °FPassing clouds.14 mph39%30.30 "HgN/A
3:50 PM55 °FSunny.14 mph38%30.30 "Hg10 mi
3:20 PM55 °FSunny.16 mph44%30.30 "Hg10 mi
2:50 PM55 °FPassing clouds.13 mph41%30.33 "HgN/A
2:20 PM55 °FPassing clouds.15 mph38%30.33 "HgN/A
1:50 PM55 °FPassing clouds.10 mph41%30.33 "HgN/A
1:20 PM54 °FPassing clouds.12 mph41%30.33 "HgN/A
12:50 PM54 °FPassing clouds.13 mph44%30.33 "HgN/A
12:20 PM54 °FPassing clouds.12 mph44%30.33 "HgN/A
Weather by CustomWeather, © 2015

See weather overviewHow to use our weather pages